User: anonymous   Login
Location: Clanezzo
(45.7500°N, 9.6000°E)
Time: 22:27:45
(UTC+00:00)
Language:

COSMOS 2487 - Orbit

View from above orbital plane
View from above orbital plane
View from above satellite
View from above satellite

Ground track
Ground track

The orbit data is extracted from the following two-line orbital elements,

1 39194U 13032A   21212.61278009  .00005363  00000-0  11399-3 0  9999
2 39194  74.7074 272.2749 0003774 281.9715  78.1077 15.45197115453128
Epoch (UTC): 31 July 2021 14:42:24
Eccentricity: 0.0003774
inclination: 74.7074°
perigee height: 428 km
apogee height: 433 km
right ascension of ascending node: 272.2749°
argument of perigee: 281.9715°
revolutions per day: 15.45197115
mean anomaly at epoch: 78.1077°
orbit number at epoch: 45312

The dashed part of the orbit path shows where the satellite is in the earth's shadow,  

DLR